Погода в Кысыле-Сыре

Россия / Республика Саха (Якутия)     62°31′49″N   129°45′46″E
темп.,
°C
ветер,
м/с
пор.,
м/с
влажн.,
%
обл.,
%
осадки,
мм/ч
давл.,
гПа
погр.,
м
1 марта, пн
пн100:00−26зсз3997100 0.2 1023687
03:00−27з4896100 0.4 1024637
06:00−27з4996100 0.1 1024695
09:00−27зсз4893100 0.3 1024718
12:00−26зсз4790100 0.1 1025826
15:00−25зсз4788100 0.2 1025850
18:00−27з3796100 0.1 1026333
21:00−28зсз3795100 0.1 1026386
2 марта, вт
вт200:00−29з3696100 0.1 1025243
03:00−29з3696100 0.1 1026211
06:00−30з2496100 0.1 1026143
09:00−31з359696 0.1 1026162
12:00−29зсз239097 0.0 1026424
15:00−27зсз238798 0.0 1025564
18:00−31з1197100 0.0 102519
21:00−31зсз2295100 0.0 102520
3 марта, ср
ср300:00−32з1296100 0.0 102419
03:00−32з1297100 0.1 102422
06:00−32зсз1297100 0.1 102351
09:00−31зсз2296100 0.1 1022172
12:00−29зсз2391100 0.1 1021374
15:00−28зсз3490100 0.1 1019475
18:00−30зсз2496100 0.1 1019116
21:00−31зсз3696100 0.1 1019273
4 марта, чт
чт400:00−32з3796100 0.1 1018307
03:00−32з3795100 0.1 1017410
06:00−32з3894100 0.1 1017461
09:00−31зсз4791100 0.1 1017670
12:00−29зсз4687100 0.1 1018793
15:00−29зсз4686100 0.1 1018807
18:00−32з3592100 0.0 102075
21:00−35з489378 0.0 1021126
5 марта, пт
пт500:00−36з489354 0.0 1022135
03:00−37з499262 0.0 1023200
06:00−38зсз4109279 0.0 1023230
09:00−35зсз5109178 0.0 1024368
12:00−31зсз589083 0.0 1024468
15:00−29зсз599091 0.0 1024522
18:00−31зсз51192100 0.0 1025360
21:00−32зсз51393100 0.0 1025439